Jida, China

10:46 AM CST on September 20, 2017 (GMT +0800)
Jida

Weather History for 45011 - September, 2013

Change the Weather History Date:

Sunday, September 8, 2013

  Actual Average Record
Temperature  
Mean Temperature 82 °F -  
Max Temperature 88 °F 82 °F - ()
Min Temperature 77 °F 75 °F - ()
Cooling Degree Days 18    
Growing Degree Days 32 (Base 50)    
Moisture  
Dew Point 74 °F    
Average Humidity 76    
Maximum Humidity 88    
Minimum Humidity 61    
Precipitation  
Precipitation 0.00 in - - ()
Sea Level Pressure  
Sea Level Pressure 29.93 in    
Wind  
Wind Speed 8 mph ()    
Max Wind Speed 12 mph    
Max Gust Speed -    
Visibility 6.4 miles    
Events      
T = Trace of Precipitation, MM = Missing Value Source: Averaged Metar Reports

Daily Weather History Graph

Daily Weather History Graph

Search for Another Location

Airport or City:

Trip Planner

Search our weather history database for the weather conditions in past years. The results will help you decide how hot, cold, wet, or windy it might be!

Date:

Astronomy

Sep. 08, 2013 Rise Set
Actual Time 6:10 AM CST 6:36 PM CST
Civil Twilight 5:48 AM CST 6:58 PM CST
Nautical Twilight 5:21 AM CST 7:24 PM CST
Astronomical Twilight 4:55 AM CST 7:51 PM CST
Moon 8:26 AM CST (9/8) 8:18 PM CST (9/8)
Length of Visible Light 13h 10m
Length of Day
12h 25m
Waxing Crescent, 8% of the Moon is Illuminated
Sep 8
Waxing Crescent
Sep 13
First Quarter
Sep 19
Full
Sep 27
Last Quarter
Oct 5
New

Hourly Weather History & Observations

Time (CST) Temp. Heat Index Dew Point Humidity Pressure Visibility Wind Dir Wind Speed Gust Speed Precip Events Conditions
12:00 AM 80.6 °F 86.2 °F 75.2 °F 84% 29.95 in 6.2 mi East 9.2 mph - N/A   Partly Cloudy
12:30 AM 80.6 °F 86.2 °F 75.2 °F 84% 29.95 in 6.2 mi East 9.2 mph - N/A   Partly Cloudy
1:00 AM 80.6 °F 86.2 °F 75.2 °F 84% 29.92 in 6.2 mi East 11.5 mph - N/A   Partly Cloudy
1:30 AM 80.6 °F 86.2 °F 75.2 °F 84% 29.92 in 6.2 mi Variable 9.2 mph - N/A   Partly Cloudy
2:00 AM 79 °F - 74 °F 81% 29.95 in 6 mi ESE 6.9 mph - -  
2:00 AM 80.6 °F 86.2 °F 75.2 °F 84% 29.92 in 6.2 mi East 8.1 mph - N/A   Partly Cloudy
2:30 AM 80.6 °F 86.2 °F 75.2 °F 84% 29.92 in 6.2 mi East 6.9 mph - N/A   Partly Cloudy
3:00 AM 80.6 °F 85.4 °F 73.4 °F 79% 29.92 in 6.2 mi ENE 8.1 mph - N/A   Partly Cloudy
3:30 AM 80.6 °F 85.4 °F 73.4 °F 79% 29.92 in 6.2 mi ENE 5.8 mph - N/A   Partly Cloudy
4:00 AM 80.6 °F 86.2 °F 75.2 °F 84% 29.92 in 6.2 mi East 6.9 mph - N/A   Partly Cloudy
4:30 AM 80.6 °F 85.4 °F 73.4 °F 79% 29.92 in 6.2 mi ENE 10.4 mph - N/A   Partly Cloudy
5:00 AM 78 °F - 75 °F 88% 29.94 in 7 mi NNE 6.9 mph - -  
5:00 AM 80.6 °F 85.4 °F 73.4 °F 79% 29.92 in 6.2 mi NE 6.9 mph - N/A   Partly Cloudy
5:30 AM 80.6 °F 86.2 °F 75.2 °F 84% 29.92 in 6.2 mi NE 10.4 mph - N/A   Partly Cloudy
6:00 AM 80.6 °F 85.4 °F 73.4 °F 79% 29.92 in 6.2 mi NE 9.2 mph - N/A   Partly Cloudy
6:30 AM 80.6 °F 85.4 °F 73.4 °F 79% 29.92 in 6.2 mi NE 9.2 mph - N/A   Partly Cloudy
7:00 AM 80.6 °F 85.4 °F 73.4 °F 79% 29.92 in 6.2 mi NE 10.4 mph - N/A   Partly Cloudy
7:30 AM 82.4 °F 88.2 °F 73.4 °F 74% 29.95 in 6.2 mi NE 9.2 mph - N/A   Partly Cloudy
8:00 AM 82 °F - 75 °F 73% 29.98 in 9 mi NE 6.9 mph - -  
8:00 AM 82.4 °F 88.2 °F 73.4 °F 74% 29.95 in 6.2 mi NE 10.4 mph - N/A   Partly Cloudy
8:30 AM 82.4 °F 88.2 °F 73.4 °F 74% 29.95 in 6.2 mi NE 9.2 mph - N/A   Partly Cloudy
9:00 AM 84.2 °F 90.9 °F 73.4 °F 70% 29.98 in 6.2 mi NE 8.1 mph - N/A   Partly Cloudy
9:30 AM 84.2 °F 90.9 °F 73.4 °F 70% 29.98 in 6.2 mi NE 8.1 mph - N/A   Partly Cloudy
10:00 AM 84.2 °F 89.6 °F 71.6 °F 66% 29.98 in 6.2 mi NE 8.1 mph - N/A   Partly Cloudy
10:30 AM 84.2 °F 90.9 °F 73.4 °F 70% 29.98 in 6.2 mi NE 6.9 mph - N/A   Partly Cloudy
11:00 AM 87 °F - 75 °F 61% 30.00 in 8 mi NNE 5.8 mph - -  
11:00 AM 84.2 °F 90.9 °F 73.4 °F 70% 29.98 in 6.2 mi NE 6.9 mph - N/A   Partly Cloudy
11:30 AM 84.2 °F 90.9 °F 73.4 °F 70% 29.98 in 6.2 mi NE 5.8 mph - N/A   Partly Cloudy
12:00 PM 86.0 °F 91.8 °F 71.6 °F 62% 29.95 in 6.2 mi NE 4.6 mph - N/A   Partly Cloudy
12:30 PM 86.0 °F 93.4 °F 73.4 °F 66% 29.95 in 6.2 mi Variable 2.3 mph - N/A   Partly Cloudy
1:00 PM 86.0 °F 93.4 °F 73.4 °F 66% 29.95 in 6.2 mi East 3.5 mph - N/A   Partly Cloudy
1:30 PM 86.0 °F 93.4 °F 73.4 °F 66% 29.92 in 6.2 mi SE 4.6 mph - N/A   Partly Cloudy
2:00 PM 86.0 °F 95.1 °F 75.2 °F 70% 29.92 in 6.2 mi ESE 5.8 mph - N/A   Partly Cloudy
2:30 PM 86.0 °F 93.4 °F 73.4 °F 66% 29.92 in 6.2 mi ESE 4.6 mph - N/A   Partly Cloudy
3:00 PM 86.0 °F 95.1 °F 75.2 °F 70% 29.89 in 6.2 mi ESE 4.6 mph - N/A   Partly Cloudy
3:30 PM 86.0 °F 95.1 °F 75.2 °F 70% 29.89 in 6.2 mi ESE 8.1 mph - N/A   Partly Cloudy
4:00 PM 84.2 °F 90.9 °F 73.4 °F 70% 29.89 in 6.2 mi ESE 9.2 mph - N/A   Partly Cloudy
4:30 PM 84.2 °F 92.3 °F 75.2 °F 74% 29.89 in 6.2 mi SE 10.4 mph - N/A   Partly Cloudy
5:00 PM 83 °F - 76 °F 74% 29.91 in 7 mi East 5.8 mph - -  
5:00 PM 84.2 °F 92.3 °F 75.2 °F 74% 29.89 in - ESE 9.2 mph - N/A   Clear
5:30 PM 84.2 °F 92.3 °F 75.2 °F 74% 29.89 in - ESE 8.1 mph - N/A   Clear
6:00 PM 84.2 °F 90.9 °F 73.4 °F 70% 29.89 in - ESE 8.1 mph - N/A   Clear
6:30 PM 82.4 °F 89.5 °F 75.2 °F 79% 29.89 in - ESE 8.1 mph - N/A   Clear
7:00 PM 82.4 °F 88.2 °F 73.4 °F 74% 29.92 in - SE 10.4 mph - N/A   Clear
7:30 PM 82.4 °F 89.5 °F 75.2 °F 79% 29.92 in - SE 10.4 mph - N/A   Clear
8:00 PM 81 °F - 75 °F 76% 29.94 in 7 mi SSE 6.9 mph - -  
8:00 PM 82.4 °F 89.5 °F 75.2 °F 79% 29.92 in - SE 10.4 mph - N/A   Clear
8:30 PM 82.4 °F 89.5 °F 75.2 °F 79% 29.92 in 6.2 mi SE 10.4 mph - N/A   Partly Cloudy
9:00 PM 82.4 °F 89.5 °F 75.2 °F 79% 29.92 in 6.2 mi SE 10.4 mph - N/A   Partly Cloudy
9:30 PM 82.4 °F 89.5 °F 75.2 °F 79% 29.95 in - ESE 10.4 mph - N/A   Clear
10:00 PM 82.4 °F 90.9 °F 77.0 °F 84% 29.95 in 6.2 mi ESE 11.5 mph - N/A   Partly Cloudy
10:30 PM 82.4 °F 89.5 °F 75.2 °F 79% 29.95 in 6.2 mi ESE 11.5 mph - N/A   Partly Cloudy
11:00 PM 80 °F - 76 °F 85% 29.97 in 7 mi SE 5.8 mph - -  
11:00 PM 82.4 °F 90.9 °F 77.0 °F 84% 29.95 in 6.2 mi ESE 10.4 mph - N/A   Partly Cloudy
11:30 PM 82.4 °F 90.9 °F 77.0 °F 84% 29.95 in 6.2 mi ESE 10.4 mph - N/A   Partly Cloudy